When you browse on this site, cookies collect data to enhance your experience and personalize the content and advertising you see.
Visit our Privacy Policy to learn more. By continuing to use the site, you agree to this use of cookies and data.
EN

Hourly Weather Gogolkowo

Today, 25 September, Friday

Time Temperature Precipitation Wind Pressure Humidity
00:00 +18°C° 0 mm 1 mps 744 mmHg 81%
01:00 +17°C° 0 mm 2 mps 744 mmHg 81%
02:00 +17°C° 0.1 mm 2 mps 744 mmHg 82%
03:00 +16°C° 0.1 mm 3 mps 743 mmHg 83%
04:00 +16°C° 0.1 mm 3 mps 743 mmHg 84%
05:00 +15°C° 0.1 mm 4 mps 742 mmHg 82%
06:00 +17°C° 0.1 mm 4 mps 741 mmHg 80%
07:00 +16°C° 0.1 mm 5 mps 741 mmHg 78%
08:00 +19°C° 0 mm 6 mps 740 mmHg 71%
09:00 +21°C° 0 mm 7 mps 740 mmHg 64%
10:00 +23°C° 0 mm 8 mps 739 mmHg 56%
11:00 +23°C° 0.2 mm 8 mps 739 mmHg 55%
12:00 +24°C° 0.2 mm 8 mps 739 mmHg 53%
13:00 +24°C° 0.2 mm 8 mps 738 mmHg 52%
14:00 +22°C° 1.4 mm 7 mps 738 mmHg 63%
15:00 +20°C° 1.4 mm 6 mps 738 mmHg 75%
16:00 +16°C° 1.4 mm 5 mps 737 mmHg 87%
17:00 +17°C° 0.5 mm 4 mps 737 mmHg 87%
18:00 +16°C° 0.5 mm 3 mps 738 mmHg 88%
19:00 +15°C° 0.5 mm 2 mps 738 mmHg 89%
20:00 +15°C° 0.1 mm 2 mps 738 mmHg 90%
21:00 +15°C° 0.1 mm 2 mps 738 mmHg 91%
22:00 +14°C° 0.1 mm 2 mps 738 mmHg 92%
23:00 +14°C° 0 mm 1 mps 738 mmHg 93%

Tomorrow, 26 September, Saturday

Time Temperature Precipitation Wind Pressure Humidity
00:00 +13°C° 0 mm 1 mps 738 mmHg 94%
01:00 +13°C° 0 mm 1 mps 738 mmHg 95%
02:00 +13°C° 0 mm 2 mps 738 mmHg 95%
03:00 +12°C° 0 mm 3 mps 737 mmHg 95%
04:00 +12°C° 0 mm 3 mps 737 mmHg 95%
05:00 +12°C° 0 mm 4 mps 736 mmHg 94%
06:00 +13°C° 0 mm 4 mps 736 mmHg 94%
07:00 +13°C° 0 mm 5 mps 736 mmHg 93%
08:00 +14°C° 0.2 mm 5 mps 735 mmHg 91%
09:00 +15°C° 0.2 mm 5 mps 735 mmHg 90%
10:00 +16°C° 0.2 mm 5 mps 735 mmHg 88%
11:00 +17°C° 0.3 mm 5 mps 735 mmHg 86%
12:00 +17°C° 0.3 mm 6 mps 735 mmHg 85%
13:00 +17°C° 0.3 mm 6 mps 735 mmHg 83%
14:00 +17°C° 0.3 mm 6 mps 735 mmHg 83%
15:00 +17°C° 0.3 mm 6 mps 735 mmHg 83%
16:00 +17°C° 0.3 mm 6 mps 736 mmHg 84%
17:00 +16°C° 0.1 mm 5 mps 736 mmHg 82%
18:00 +16°C° 0.1 mm 3 mps 737 mmHg 81%
19:00 +15°C° 0.1 mm 2 mps 737 mmHg 80%
20:00 +14°C° 0 mm 2 mps 738 mmHg 78%
21:00 +14°C° 0 mm 2 mps 738 mmHg 75%
22:00 +13°C° 0 mm 2 mps 739 mmHg 73%
23:00 +13°C° 0.1 mm 2 mps 739 mmHg 74%

Day after tomorrow, 27 September, Sunday

Time Temperature Precipitation Wind Pressure Humidity
00:00 +13°C° 0.1 mm 2 mps 739 mmHg 75%
01:00 +11°C° 0.1 mm 3 mps 740 mmHg 76%
02:00 +12°C° 0.4 mm 2 mps 740 mmHg 78%
03:00 +10°C° 0.4 mm 2 mps 740 mmHg 80%
04:00 +10°C° 0.4 mm 2 mps 740 mmHg 82%
05:00 +10°C° 0.7 mm 2 mps 740 mmHg 84%
06:00 +10°C° 0.7 mm 3 mps 740 mmHg 86%
07:00 +9°C° 0.7 mm 3 mps 740 mmHg 88%
08:00 +10°C° 0.3 mm 3 mps 741 mmHg 88%
09:00 +10°C° 0.3 mm 3 mps 741 mmHg 88%
10:00 +10°C° 0.3 mm 4 mps 741 mmHg 88%
11:00 +10°C° 1 mm 4 mps 741 mmHg 89%
12:00 +9°C° 1 mm 5 mps 741 mmHg 91%
13:00 +9°C° 1 mm 5 mps 741 mmHg 92%
14:00 +9°C° 1.6 mm 6 mps 740 mmHg 92%
15:00 +9°C° 1.6 mm 6 mps 740 mmHg 93%
16:00 +9°C° 1.6 mm 6 mps 740 mmHg 94%
17:00 +9°C° 1.8 mm 6 mps 740 mmHg 95%
18:00 +9°C° 1.8 mm 5 mps 740 mmHg 95%
19:00 +10°C° 1.8 mm 5 mps 741 mmHg 96%
20:00 +11°C° 0.3 mm 4 mps 741 mmHg 95%
21:00 +11°C° 0.3 mm 4 mps 741 mmHg 95%
22:00 +11°C° 0.3 mm 4 mps 741 mmHg 95%
23:00 +12°C° 0.1 mm 4 mps 741 mmHg 95%

28 September, Monday

Time Temperature Precipitation Wind Pressure Humidity
00:00 +12°C° 0.1 mm 4 mps 741 mmHg 96%
01:00 +12°C° 0.1 mm 4 mps 741 mmHg 96%
02:00 +12°C° 0.1 mm 3 mps 741 mmHg 96%
03:00 +11°C° 0.1 mm 3 mps 741 mmHg 95%
04:00 +11°C° 0.1 mm 3 mps 742 mmHg 95%
05:00 +12°C° 0 mm 2 mps 742 mmHg 94%
06:00 +12°C° 0 mm 2 mps 742 mmHg 93%
07:00 +12°C° 0 mm 2 mps 742 mmHg 92%
08:00 +12°C° 0.1 mm 2 mps 743 mmHg 90%
09:00 +12°C° 0.1 mm 3 mps 743 mmHg 88%
10:00 +12°C° 0.1 mm 3 mps 743 mmHg 87%
11:00 +12°C° 0.2 mm 4 mps 743 mmHg 87%
12:00 +10°C° 0.2 mm 5 mps 744 mmHg 88%
13:00 +10°C° 0.2 mm 6 mps 744 mmHg 89%
14:00 +10°C° 0.7 mm 6 mps 744 mmHg 89%
15:00 +10°C° 0.7 mm 6 mps 744 mmHg 88%
16:00 +9°C° 0.7 mm 7 mps 744 mmHg 88%
17:00 +9°C° 0.2 mm 6 mps 745 mmHg 87%
18:00 +10°C° 0.2 mm 6 mps 745 mmHg 86%
19:00 +10°C° 0.2 mm 6 mps 745 mmHg 86%
20:00 +10°C° 0.1 mm 5 mps 745 mmHg 85%
21:00 +10°C° 0.1 mm 5 mps 746 mmHg 84%
22:00 +10°C° 0.1 mm 5 mps 746 mmHg 83%
23:00 +9°C° 0.3 mm 5 mps 746 mmHg 84%

29 September, Tuesday

Time Temperature Precipitation Wind Pressure Humidity
00:00 +9°C° 0.3 mm 5 mps 746 mmHg 86%
01:00 +10°C° 0.3 mm 4 mps 746 mmHg 87%
02:00 +10°C° 0.5 mm 4 mps 746 mmHg 88%
03:00 +10°C° 0.5 mm 4 mps 746 mmHg 89%
04:00 +10°C° 0.5 mm 3 mps 746 mmHg 91%
05:00 +10°C° 0.4 mm 3 mps 746 mmHg 91%
06:00 +10°C° 0.4 mm 3 mps 747 mmHg 90%
07:00 +10°C° 0.4 mm 3 mps 747 mmHg 90%
08:00 +10°C° 0.2 mm 3 mps 747 mmHg 89%
09:00 +10°C° 0.2 mm 3 mps 747 mmHg 87%
10:00 +12°C° 0.2 mm 2 mps 747 mmHg 86%
11:00 +13°C° 0 mm 2 mps 748 mmHg 81%
12:00 +14°C° 0 mm 2 mps 748 mmHg 76%
13:00 +15°C° 0 mm 1 mps 748 mmHg 71%
14:00 +15°C° 0 mm 1 mps 748 mmHg 70%
15:00 +15°C° 0 mm 1 mps 748 mmHg 70%
16:00 +16°C° 0 mm 2 mps 748 mmHg 70%
17:00 +14°C° 0 mm 2 mps 749 mmHg 75%
18:00 +13°C° 0 mm 2 mps 749 mmHg 80%
19:00 +12°C° 0 mm 2 mps 749 mmHg 85%
20:00 +12°C° 0 mm 2 mps 750 mmHg 85%
21:00 +10°C° 0 mm 2 mps 750 mmHg 86%
22:00 +10°C° 0 mm 2 mps 750 mmHg 86%
23:00 +10°C° 0 mm 2 mps 750 mmHg 87%

30 September, Wednesday

Time Temperature Precipitation Wind Pressure Humidity
00:00 +10°C° 0 mm 2 mps 750 mmHg 88%
01:00 +9°C° 0 mm 2 mps 750 mmHg 89%
02:00 +9°C° 0 mm 2 mps 750 mmHg 89%
03:00 +9°C° 0 mm 2 mps 750 mmHg 89%
04:00 +9°C° 0 mm 2 mps 750 mmHg 89%
05:00 +10°C° 0 mm 2 mps 750 mmHg 89%
06:00 +10°C° 0 mm 3 mps 750 mmHg 89%
07:00 +10°C° 0 mm 3 mps 750 mmHg 88%
08:00 +11°C° 0 mm 3 mps 750 mmHg 86%
09:00 +13°C° 0 mm 3 mps 750 mmHg 85%
10:00 +14°C° 0 mm 4 mps 750 mmHg 83%
11:00 +14°C° 0 mm 4 mps 750 mmHg 82%
12:00 +15°C° 0 mm 4 mps 750 mmHg 81%
13:00 +15°C° 0 mm 4 mps 750 mmHg 80%
14:00 +17°C° 0 mm 4 mps 750 mmHg 79%
15:00 +17°C° 0 mm 4 mps 749 mmHg 79%
16:00 +17°C° 0 mm 4 mps 749 mmHg 79%
17:00 +15°C° 0 mm 4 mps 749 mmHg 83%
18:00 +14°C° 0 mm 4 mps 749 mmHg 87%
19:00 +13°C° 0 mm 4 mps 749 mmHg 91%
20:00 +13°C° 0 mm 3 mps 749 mmHg 92%
21:00 +12°C° 0 mm 3 mps 749 mmHg 93%
22:00 +12°C° 0 mm 3 mps 749 mmHg 95%
23:00 +12°C° 0 mm 3 mps 749 mmHg 95%
Show more